Voltar ao catálogo

SL-14 R/B

AtivoPO
NORAD 19275·ROCKET BODY·🇷🇺 Russia

Lançado Jul 5, 1988 de Plesetsk Cosmodrome

Loading…

Próximas Passagens (próximas 24 horas)

TLE

AtualizadoSource: Space-Track

Época: Sep 14, 2026, 08:47 UTC

1 19275U 88056B   26257.36648367  .00000353  00000-0  38240-4 0  9998
2 19275  82.5139  47.2195 0017788 234.3288 125.6273 14.85239037 42670

Acompanhe SL-14 R/B em tempo real com AllMySat

Download on the App Store